Stations météo

Publicité
Chartres, France (7143): Température de l'air & dewpoint: 15.01.2020 21:00:00 - 21.01.2020 21:00:00 (CET)Chartres, France (7143): Température de l'air 5cm: 15.01.2020 21:00:00 - 21.01.2020 21:00:00 (CET)Chartres, France (7143): Température de l'air -20cm & Température de l'air -100cm: 15.01.2020 21:00:00 - 21.01.2020 21:00:00 (CET)Chartres, France (7143): Vitesse du vent & gusts: 15.01.2020 21:00:00 - 21.01.2020 21:00:00 (CET)Chartres, France (7143): Direction du vent: 15.01.2020 21:00:00 - 21.01.2020 21:00:00 (CET)Chartres, France (7143): reduced air pressure: 15.01.2020 21:00:00 - 21.01.2020 21:00:00 (CET)Chartres, France (7143): visibility: 15.01.2020 21:00:00 - 21.01.2020 21:00:00 (CET)Chartres, France (7143): Ensoleillement: 15.01.2020 21:00:00 - 21.01.2020 21:00:00 (CET)Chartres, France (7143): Quantités de précipitations: 15.01.2020 21:00:00 - 21.01.2020 21:00:00 (CET)
Date & Time tt [°C] td [°C] tt 5cm [°C] tt -20cm [°C] tt -100cm [°C] ff [km/h] ff [knt] fx [km/h] fx [knt] dd ppp [hPa] vv [km] sd [min] rr [mm]
21.01.2020 21:00:00 0,2 -1,2 - - - 5 3 11 6 N 1039,1 8 - 0,0
21.01.2020 20:00:00 0,9 -1,0 -1,1 5,8 9,3 8 4 12 6 N 1039,6 13 0 0,0
21.01.2020 19:00:00 1,4 -0,7 -0,3 5,8 9,3 5 3 11 6 NNE 1039,4 13 0 0,0
21.01.2020 18:00:00 2,0 -0,8 1,0 5,8 9,3 7 4 10 5 NNE 1039,2 15 7 0,0
21.01.2020 17:00:00 3,9 -0,9 3,1 5,7 9,3 7 4 15 8 NE 1039,2 18 56 0,0
21.01.2020 16:00:00 4,1 0,4 5,3 5,7 9,3 12 6 23 12 N 1039,4 16 50 0,0
21.01.2020 15:00:00 4,1 0,4 7,5 5,7 9,3 14 7 22 12 N 1039,4 18 60 0,0
21.01.2020 14:00:00 3,9 -0,1 8,1 5,7 9,3 9 5 16 8 NNE 1040,1 18 60 0,0
21.01.2020 13:00:00 3,0 -0,3 7,2 5,7 9,3 7 4 14 7 NE 1041,2 19 60 0,2
21.01.2020 12:00:00 1,7 -0,4 -0,5 5,7 9,3 7 4 13 7 NE 1041,9 15 60 0,0
21.01.2020 11:00:00 0,3 -0,6 -1,8 5,8 9,3 5 3 10 6 NE 1042,0 5 60 0,0
21.01.2020 10:00:00 -1,0 -1,3 -2,6 5,8 9,3 5 3 12 6 NNE 1042,0 3,1 24 0,0
21.01.2020 09:00:00 -1,9 -2,2 -3,6 5,9 9,4 6 3 12 6 NNE 1041,8 2,4 0 0,0
21.01.2020 08:00:00 -1,4 -1,7 -2,6 5,9 9,3 7 4 13 7 NNE 1041,5 2,4 0 0,0
21.01.2020 07:00:00 -1,0 -1,4 -1,8 5,9 9,4 8 4 13 7 NNE 1041,7 3,0 0 0,0
21.01.2020 06:00:00 -0,4 -0,8 -1,7 5,9 9,4 8 5 14 8 NNE 1041,6 3,5 0 0,0
21.01.2020 05:00:00 -0,1 -0,5 -1,4 6,0 9,3 10 5 16 8 NNE 1041,6 3,4 0 0,0
21.01.2020 04:00:00 0,0 -0,4 -0,8 6,0 9,4 11 6 19 11 NNE 1042,0 3,9 0 0,0
21.01.2020 03:00:00 0,4 0,0 -0,5 6,1 9,4 11 6 22 12 NNE 1042,7 4,1 0 0,0
21.01.2020 02:00:00 0,7 0,1 -0,2 6,1 9,4 11 6 20 11 NNE 1043,1 4,2 0 0,0
21.01.2020 01:00:00 0,9 0,3 -0,2 6,1 9,4 11 6 18 10 N 1043,5 4,7 0 0,0
21.01.2020 00:00:00 1,0 0,6 -0,1 6,2 9,4 10 5 19 11 NNE 1044,0 4,8 0 0,0
20.01.2020 23:00:00 1,0 0,4 0,1 6,2 9,4 11 6 18 10 NNE 1044,1 7 0 0,0
20.01.2020 22:00:00 1,2 0,5 0,2 6,2 9,4 10 6 19 11 NNE 1044,1 8 0 0,0
20.01.2020 21:00:00 1,4 0,4 0,3 6,2 9,4 10 5 19 10 NNE 1044,4 11 0 0,0
20.01.2020 20:00:00 1,5 -0,3 0,4 6,3 9,4 10 5 16 9 NNE 1044,2 18 0 0,0
20.01.2020 19:00:00 1,9 -0,4 0,9 6,3 9,4 10 6 24 13 NNE 1044,1 20 0 0,0
20.01.2020 18:00:00 3,2 -0,3 2,4 6,3 9,4 13 7 29 16 NNE 1043,8 20 5 0,0
20.01.2020 17:00:00 4,9 -0,1 4,4 6,2 9,4 18 10 34 18 NNE 1043,8 18 57 0,0
20.01.2020 16:00:00 5,8 0,1 6,5 6,2 9,4 18 10 32 18 NNE 1044,1 20 51 0,0
20.01.2020 15:00:00 6,0 0,1 8,6 6,2 9,4 19 10 33 18 NE 1044,5 20 60 0,0
20.01.2020 14:00:00 6,0 0,5 8,9 6,2 9,4 15 8 29 15 NE 1045,3 19 60 0,0
20.01.2020 13:00:00 5,5 0,5 8,6 6,2 9,4 13 7 30 16 NNE 1046,1 16 60 0,0
20.01.2020 12:00:00 4,3 0,8 2,3 6,2 9,4 15 8 28 15 NNE 1046,7 17 60 0,2
20.01.2020 11:00:00 2,4 0,8 0,9 6,2 9,4 14 8 24 13 NNE 1047,2 12 60 0,0
20.01.2020 10:00:00 1,4 0,2 -0,4 6,3 9,5 13 7 20 11 NNE 1047,0 10 52 0,0
20.01.2020 09:00:00 0,5 -0,4 -0,6 6,3 9,4 8 5 17 9 N 1047,0 10 0 0,0
20.01.2020 08:00:00 0,5 -0,5 -0,6 6,4 9,5 10 5 20 11 NNE 1046,5 11 0 0,0
20.01.2020 07:00:00 0,6 -0,3 -0,5 6,4 9,4 10 6 20 11 N 1046,1 12 0 0,0
20.01.2020 06:00:00 1,0 -0,3 -0,2 6,5 9,4 9 5 15 8 NNE 1045,6 14 0 0,0
20.01.2020 05:00:00 1,3 -0,3 0,2 6,5 9,5 9 5 18 10 NNE 1045,5 15 0 0,0
20.01.2020 04:00:00 1,3 0,0 0,2 6,6 9,5 10 5 22 12 NNE 1045,7 15 0 0,0
20.01.2020 03:00:00 1,5 0,0 0,5 6,6 9,5 11 6 23 12 N 1046,0 15 0 0,0
20.01.2020 02:00:00 2,0 0,4 1,0 6,7 9,5 13 7 20 11 NNE 1045,9 16 0 0,0
20.01.2020 01:00:00 2,4 0,6 1,3 6,7 9,5 13 7 24 13 NNE 1046,0 17 0 0,0
20.01.2020 00:00:00 2,4 0,6 0,3 6,7 9,5 14 7 22 12 N 1045,8 17 0 0,0
19.01.2020 23:00:00 1,9 0,1 0,9 6,8 9,5 8 5 17 9 NNE 1045,6 17 0 0,0
19.01.2020 22:00:00 2,8 0,5 1,8 6,8 9,5 12 6 26 14 NNE 1045,4 18 0 0,0
19.01.2020 21:00:00 3,0 0,7 0,9 6,8 9,5 12 6 22 12 N 1045,0 19 0 0,0
19.01.2020 20:00:00 3,1 0,7 1,3 6,8 9,5 8 4 21 11 N 1044,1 20 0 0,0
19.01.2020 19:00:00 4,5 1,0 3,6 6,8 9,5 13 7 26 14 NNE 1043,7 20 0 0,0
19.01.2020 18:00:00 5,6 1,3 4,9 6,8 9,5 14 8 31 17 NNE 1042,8 20 3 0,0
19.01.2020 17:00:00 5,8 0,9 5,4 6,7 9,5 17 9 32 18 N 1041,8 20 28 0,0
19.01.2020 16:00:00 6,4 1,3 6,7 6,7 9,5 18 10 42 23 N 1041,3 20 27 0,0
19.01.2020 15:00:00 6,6 1,1 7,3 6,7 9,5 20 11 37 20 NNE 1040,7 20 36 0,0
19.01.2020 14:00:00 6,4 2,1 6,8 6,7 9,5 19 10 32 18 NNE 1040,8 20 46 0,0
19.01.2020 13:00:00 5,4 2,7 7,7 6,7 9,5 18 10 30 16 NNE 1041,1 20 56 0,0
19.01.2020 12:00:00 4,3 2,2 2,4 6,7 9,5 16 9 31 17 N 1041,5 20 60 0,2
19.01.2020 11:00:00 3,0 1,5 0,8 6,8 9,5 14 7 24 13 N 1041,1 19 60 0,0
19.01.2020 10:00:00 1,8 0,9 -0,6 6,9 9,5 13 7 23 12 N 1040,2 16 43 0,0
19.01.2020 09:00:00 0,7 0,1 -0,9 6,9 9,5 11 6 19 10 N 1039,3 15 0 0,0
19.01.2020 08:00:00 0,3 -0,4 -0,8 7,0 9,5 9 5 16 8 N 1038,3 16 0 0,0
19.01.2020 07:00:00 0,5 -0,2 -1,4 7,0 9,5 9 5 16 8 N 1037,5 18 0 0,0
19.01.2020 06:00:00 0,4 -0,3 -1,3 7,1 9,5 9 5 18 10 N 1037,0 16 0 0,0
19.01.2020 05:00:00 0,2 -0,4 -1,4 7,2 9,5 10 5 16 8 N 1036,6 13 0 0,0
19.01.2020 04:00:00 0,5 -0,2 -1,1 7,2 9,5 10 5 16 8 N 1036,0 14 0 0,0
19.01.2020 03:00:00 0,5 -0,2 -0,7 7,3 9,5 8 4 16 9 N 1035,5 14 0 0,0
19.01.2020 02:00:00 0,9 0,2 -0,3 7,3 9,5 9 5 16 8 N 1034,7 13 0 0,0
19.01.2020 01:00:00 1,4 1,0 0,1 7,4 9,5 9 5 15 8 N 1034,2 9 0 0,0
19.01.2020 00:00:00 2,0 1,4 0,8 7,4 9,5 9 5 15 8 N 1033,4 8 0 0,0
18.01.2020 23:00:00 2,2 1,6 0,6 7,5 9,5 8 4 11 6 N 1032,6 11 0 0,0
18.01.2020 22:00:00 2,4 1,7 1,0 7,5 9,5 5 3 12 6 NNE 1031,9 13 0 0,0
18.01.2020 21:00:00 3,0 2,1 1,8 7,6 9,5 6 4 14 8 NNE 1031,0 14 0 0,0
18.01.2020 20:00:00 3,7 2,7 2,7 7,6 9,5 10 5 18 10 NNE 1030,2 17 0 0,0
18.01.2020 19:00:00 4,8 3,5 3,8 7,5 9,5 10 6 18 10 NNE 1029,5 20 0 0,0
18.01.2020 18:00:00 5,4 3,4 4,1 7,5 9,5 8 4 19 10 NNE 1029,1 20 2 0,0
18.01.2020 17:00:00 7,0 3,8 6,1 7,5 9,6 8 4 11 6 N 1028,5 20 27 0,0
18.01.2020 16:00:00 7,1 3,9 7,9 7,4 9,5 6 4 12 7 NNE 1028,1 16 27 0,0
18.01.2020 15:00:00 8,4 4,4 10,2 7,3 9,5 5 3 10 5 N 1027,5 20 47 0,0
18.01.2020 14:00:00 8,1 3,9 9,3 7,3 9,5 2 1 9 5 NNW 1028,1 20 17 0,0
18.01.2020 13:00:00 6,8 3,6 8,7 7,3 9,5 4 2 10 5 W 1028,4 20 26 0,0
18.01.2020 12:00:00 6,2 3,4 5,4 7,3 9,5 3 2 12 7 W 1028,5 20 53 0,0
18.01.2020 11:00:00 4,6 2,6 3,1 7,4 9,5 6 3 12 7 WSW 1028,6 20 25 0,0
18.01.2020 10:00:00 3,1 1,8 1,6 7,4 9,5 8 4 14 7 WSW 1028,5 20 31 0,0
18.01.2020 09:00:00 2,6 1,6 1,4 7,5 9,5 5 3 19 10 WSW 1028,4 20 0 0,0
18.01.2020 08:00:00 2,3 1,4 0,4 7,5 9,5 7 4 19 11 SW 1028,2 20 0 0,0
18.01.2020 07:00:00 1,8 0,8 0,4 7,6 9,5 6 4 16 9 SSW 1027,8 20 0 0,0
18.01.2020 06:00:00 2,6 1,3 1,5 7,7 9,5 8 4 18 10 WSW 1027,4 20 0 0,0
18.01.2020 05:00:00 2,9 1,4 1,7 7,7 9,5 8 4 18 10 WSW 1027,2 20 0 0,0
18.01.2020 04:00:00 3,2 1,6 2,1 7,8 9,5 8 5 21 12 WSW 1027,1 20 0 0,0
18.01.2020 03:00:00 3,4 1,6 1,2 7,9 9,5 11 6 19 11 WSW 1027,0 20 0 0,0
18.01.2020 02:00:00 3,0 1,2 1,5 8,0 9,5 10 5 16 9 SSW 1026,3 20 0 0,0
18.01.2020 01:00:00 3,9 1,4 0,9 8,0 9,5 9 5 22 12 SSW 1026,2 20 0 0,0
18.01.2020 00:00:00 3,3 1,3 1,0 8,1 9,5 5 3 14 8 S 1026,1 20 0 0,0
17.01.2020 23:00:00 3,7 1,2 2,0 8,2 9,5 8 4 19 11 S 1025,7 20 0 0,0
17.01.2020 22:00:00 4,4 1,4 2,5 8,2 9,5 8 4 18 10 SSW 1025,2 20 0 0,0
17.01.2020 21:00:00 5,1 1,6 1,8 8,3 9,5 8 5 18 10 WSW 1024,8 20 0 0,0
17.01.2020 20:00:00 4,7 1,9 2,5 8,3 9,5 5 3 16 9 SW 1024,4 20 0 0,0
17.01.2020 19:00:00 6,0 2,5 4,0 8,3 9,5 5 3 35 19 WNW 1023,7 20 0 0,0
17.01.2020 18:00:00 7,5 2,2 5,1 8,4 9,5 14 7 46 25 W 1022,7 20 0 0,0
17.01.2020 17:00:00 9,0 2,5 7,9 8,3 9,5 10 6 36 19 W 1021,3 20 54 0,0
17.01.2020 16:00:00 10,0 2,6 9,5 8,3 9,5 15 8 37 20 W 1020,4 20 50 0,0
17.01.2020 15:00:00 10,4 3,0 11,8 8,2 9,5 18 10 38 21 W 1019,7 20 60 0,0
17.01.2020 14:00:00 10,7 3,2 10,3 8,2 9,5 19 10 41 22 W 1019,3 19 52 0,0
17.01.2020 13:00:00 10,7 3,9 11,1 8,1 9,5 19 10 37 20 W 1019,1 20 56 0,0
17.01.2020 12:00:00 10,1 5,7 10,0 8,1 9,5 18 10 40 21 W 1018,9 20 24 0,0
17.01.2020 11:00:00 9,6 7,2 9,0 8,1 9,5 15 8 29 16 WSW 1018,3 20 14 0,0
17.01.2020 10:00:00 9,1 7,7 8,3 8,0 9,5 8 4 25 14 SW 1017,6 20 0 0,0
17.01.2020 09:00:00 8,9 8,0 8,1 8,1 9,5 11 6 32 18 SW 1016,8 20 0 0,0
17.01.2020 08:00:00 8,7 7,9 8,1 8,0 9,5 15 8 30 16 SSW 1016,0 12 0 0,0
17.01.2020 07:00:00 8,5 7,9 8,0 8,0 9,5 16 8 31 17 S 1015,8 17 0 0,4
17.01.2020 06:00:00 8,6 7,5 7,6 8,0 9,5 16 9 32 17 S 1015,5 16 0 0,0
17.01.2020 05:00:00 8,4 7,3 7,6 8,0 9,5 16 8 29 16 S 1015,6 19 0 0,4
17.01.2020 04:00:00 9,0 7,1 7,8 8,0 9,5 15 8 32 17 S 1016,1 12 0 0,4
17.01.2020 03:00:00 10,3 6,3 9,7 8,0 9,5 16 9 39 21 S 1016,2 20 0 0,0
17.01.2020 02:00:00 10,1 6,2 9,2 8,0 9,5 17 9 36 19 SSW 1016,4 20 0 0,0
17.01.2020 01:00:00 9,8 6,1 8,9 8,0 9,6 14 8 32 18 S 1016,4 20 0 0,0
17.01.2020 00:00:00 10,0 6,0 9,2 8,0 9,6 14 8 29 16 S 1016,6 20 0 0,0
16.01.2020 23:00:00 10,0 6,2 7,8 8,0 9,6 15 8 29 15 S 1016,7 20 0 0,0
16.01.2020 22:00:00 9,0 5,9 7,8 8,0 9,6 12 6 27 15 S 1017,2 20 0 0,0
16.01.2020 21:00:00 9,4 6,1 8,3 7,9 9,5 13 7 27 15 S 1017,5 20 0 0,0
16.01.2020 20:00:00 10,1 6,1 8,9 7,9 9,5 13 7 27 15 SSE 1017,9 20 0 0,0
16.01.2020 19:00:00 11,1 5,8 9,7 7,9 9,5 11 6 23 13 SSE 1018,0 20 0 0,0
16.01.2020 18:00:00 11,6 5,9 10,1 7,9 9,5 11 6 22 12 SSE 1018,1 20 0 0,0
16.01.2020 17:00:00 12,9 6,5 11,5 7,8 9,5 12 6 26 14 SSE 1018,5 20 44 0,0
16.01.2020 16:00:00 13,9 7,2 13,2 7,7 9,5 15 8 35 19 S 1019,1 20 50 0,0
16.01.2020 15:00:00 13,8 7,3 15,0 7,7 9,6 18 10 41 22 S 1019,4 20 60 0,0
16.01.2020 14:00:00 13,3 7,5 14,9 7,6 9,5 18 10 35 19 S 1020,4 20 60 0,0
16.01.2020 13:00:00 12,5 7,6 13,6 7,5 9,5 14 7 34 19 S 1021,4 20 60 0,0
16.01.2020 12:00:00 10,6 7,5 7,8 7,6 9,5 16 9 32 17 S 1022,3 20 60 0,0
16.01.2020 11:00:00 8,1 6,9 6,3 7,6 9,6 13 7 29 16 S 1023,5 20 50 0,0
16.01.2020 10:00:00 6,7 6,6 4,8 7,6 9,6 12 6 25 14 S 1023,5 16 38 0,0
16.01.2020 09:00:00 5,4 5,4 4,9 7,6 9,5 9 5 22 12 SSE 1023,7 2,6 0 0,0
16.01.2020 08:00:00 5,0 5,0 4,3 7,7 9,5 9 5 16 9 SSE 1024,2 3,6 0 0,0
16.01.2020 07:00:00 4,4 4,4 3,6 7,7 9,5 9 5 16 9 SSE 1024,4 0,5 0 0,0
16.01.2020 06:00:00 3,7 3,7 3,0 7,8 9,5 6 3 17 9 S 1024,8 0,2 0 0,0
16.01.2020 05:00:00 3,3 3,3 2,3 7,8 9,5 9 5 18 10 S 1024,9 0,2 0 0,0
16.01.2020 04:00:00 3,2 3,1 2,1 7,9 9,5 6 3 13 7 S 1024,8 0,3 0 0,0
16.01.2020 03:00:00 3,7 3,6 1,3 8,0 9,5 7 4 11 6 S 1024,8 7 0 0,0
16.01.2020 02:00:00 3,3 3,2 -0,7 8,0 9,5 5 3 9 5 SSE 1024,6 4,0 0 0,0
16.01.2020 01:00:00 2,5 2,2 -0,7 8,1 9,5 4 2 8 5 S 1024,8 2,8 0 0,0
16.01.2020 00:00:00 2,9 2,5 -0,9 8,2 9,5 4 2 6 3 SE 1024,7 8 0 0,0
15.01.2020 23:00:00 3,1 2,4 -0,5 8,2 9,5 2 1 6 3 WSW 1024,0 13 0 0,0
15.01.2020 22:00:00 4,7 4,3 1,2 8,3 9,5 7 4 10 5 S 1023,4 17 0 0,0
15.01.2020 21:00:00 6,5 5,8 3,0 8,3 9,5 5 3 9 5 W 1022,4 20 0 0,0

tt = Température de l'air
td = dewpoint
tt 5cm = Température de l'air 5cm
tt -20cm = Température de l'air -20cm
tt -100cm = Température de l'air -100cm
ff = Vitesse du vent
fx = gusts
dd = Direction du vent
ppp = reduced air pressure
vv = visibility
sd = Ensoleillement
rr = Quantités de précipitations

stations d'obs. à proximité